| time (UTC) | temp F | wind direction | speed MPH | gust MPH | rain 1hr in | rain 24hr in | rain mn in | humidity % | barometer mb |
| 20260506123016 | 54 | 144 | 0.0 | 0.0 | 0.00 | 0.00 | 0.00 | 91 | 1020.0 |
| 20260506121520 | 54 | 144 | 0.0 | 0.0 | 0.00 | 0.00 | 0.00 | 91 | 1019.9 |
| 20260506120026 | 54 | 144 | 0.0 | 0.0 | 0.00 | 0.00 | 0.00 | 91 | 1019.8 |
| 20260506114519 | 54 | 144 | 0.0 | 0.0 | 0.00 | 0.00 | 0.00 | 91 | 1019.7 |
| 20260506113021 | 54 | 144 | 0.0 | 0.0 | 0.00 | 0.00 | 0.00 | 91 | 1019.6 |
| 20260506111519 | 54 | 144 | 0.0 | 0.0 | 0.00 | 0.00 | 0.00 | 91 | 1019.5 |
| 20260506110023 | 54 | 144 | 0.0 | 0.0 | 0.00 | 0.00 | 0.00 | 90 | 1019.4 |
| 20260506104527 | 54 | 144 | 0.0 | 0.0 | 0.00 | 0.00 | 0.00 | 90 | 1019.5 |
| 20260506103025 | 54 | 144 | 0.0 | 0.0 | 0.00 | 0.00 | 0.00 | 90 | 1019.2 |
| 20260506101524 | 54 | 144 | 0.0 | 0.0 | 0.00 | 0.00 | 0.00 | 90 | 1019.1 |
| 20260506100023 | 54 | 144 | 0.0 | 0.0 | 0.00 | 0.00 | 0.00 | 90 | 1019.0 |
| 20260506094528 | 54 | 144 | 0.0 | 0.0 | 0.00 | 0.00 | 0.00 | 90 | 1019.0 |
| 20260506093033 | 55 | 144 | 0.0 | 0.0 | 0.00 | 0.01 | 0.00 | 90 | 1019.1 |
| 20260506091527 | 55 | 144 | 0.0 | 0.0 | 0.00 | 0.01 | 0.00 | 90 | 1019.2 |
| 20260506090012 | 55 | 144 | 0.0 | 0.0 | 0.00 | 0.02 | 0.00 | 89 | 1019.2 |
| 20260506084525 | 55 | 144 | 0.0 | 0.0 | 0.00 | 0.05 | 0.00 | 89 | 1019.2 |
| 20260506083005 | 55 | 144 | 0.0 | 0.0 | 0.00 | 0.07 | 0.00 | 89 | 1019.3 |
| 20260506081512 | 55 | 144 | 0.0 | 0.0 | 0.00 | 0.07 | 0.00 | 89 | 1019.2 |
| 20260506073012 | 55 | 144 | 0.0 | 0.0 | 0.00 | 0.07 | 0.00 | 89 | 1018.9 |
| 20260506071512 | 55 | 144 | 0.0 | 1.0 | 0.00 | 0.07 | 0.00 | 89 | 1018.7 |
| 20260506061525 | 55 | 144 | 0.0 | 0.0 | 0.00 | 0.19 | 0.08 | 89 | 1018.3 |
| 20260506044536 | 56 | 144 | 0.0 | 0.0 | 0.00 | 0.20 | 0.08 | 87 | 1017.7 |
| 20260506043025 | 56 | 144 | 0.0 | 0.0 | 0.00 | 0.20 | 0.08 | 87 | 1017.4 |
| 20260506041538 | 56 | 144 | 0.0 | 1.0 | 0.00 | 0.20 | 0.08 | 86 | 1017.3 |
| 20260506040032 | 57 | 144 | 0.0 | 0.0 | 0.00 | 0.20 | 0.08 | 85 | 1017.1 |
| 20260506034531 | 57 | 144 | 0.0 | 1.0 | 0.00 | 0.20 | 0.08 | 84 | 1016.7 |
| 20260506033028 | 58 | 144 | 0.0 | 3.0 | 0.00 | 0.20 | 0.08 | 83 | 1016.3 |
| 20260506031529 | 58 | 155 | 0.0 | 2.0 | 0.00 | 0.21 | 0.08 | 81 | 1016.1 |
| 20260506030028 | 59 | 151 | 0.0 | 3.0 | 0.00 | 0.21 | 0.08 | 79 | 1016.0 |
| 20260506024528 | 59 | 152 | 0.0 | 2.0 | 0.00 | 0.21 | 0.08 | 78 | 1015.9 |
| 20260506023016 | 60 | 152 | 0.0 | 2.0 | 0.00 | 0.22 | 0.08 | 76 | 1015.8 |
| 20260506021511 | 61 | 204 | 0.0 | 0.0 | 0.00 | 0.24 | 0.08 | 75 | 1015.8 |
| 20260506020010 | 62 | 204 | 0.0 | 0.0 | 0.00 | 0.28 | 0.08 | 75 | 1015.5 |
| 20260506014514 | 63 | 204 | 0.0 | 0.0 | 0.00 | 0.30 | 0.08 | 73 | 1015.4 |
| 20260506013014 | 64 | 187 | 0.0 | 0.0 | 0.00 | 0.31 | 0.08 | 72 | 1015.4 |
| 20260506011535 | 65 | 190 | 0.0 | 2.0 | 0.00 | 0.32 | 0.08 | 69 | 1015.2 |
| 20260506010016 | 66 | 194 | 0.0 | 3.0 | 0.00 | 0.34 | 0.08 | 69 | 1015.2 |
| 20260506004532 | 67 | 59 | 0.0 | 2.0 | 0.00 | 0.35 | 0.08 | 67 | 1015.3 |
| 20260506003019 | 68 | 173 | 0.0 | 2.0 | 0.00 | 0.35 | 0.08 | 69 | 1015.1 |
| 20260506001520 | 67 | 190 | 0.0 | 2.0 | 0.00 | 0.37 | 0.08 | 69 | 1015.0 |
| 20260506000021 | 66 | 182 | 0.0 | 3.0 | 0.00 | 0.38 | 0.08 | 70 | 1014.9 |
| 20260505234522 | 65 | 162 | 0.0 | 3.0 | 0.00 | 0.39 | 0.08 | 73 | 1014.9 |
| 20260505233031 | 64 | 273 | 0.0 | 4.0 | 0.00 | 0.39 | 0.08 | 73 | 1014.9 |
| 20260505231529 | 65 | 186 | 0.0 | 2.0 | 0.00 | 0.41 | 0.08 | 72 | 1015.0 |
| 20260505230026 | 66 | 221 | 0.0 | 2.0 | 0.00 | 0.42 | 0.08 | 72 | 1014.9 |
| 20260505224526 | 67 | 222 | 0.0 | 3.0 | 0.00 | 0.43 | 0.08 | 71 | 1014.9 |
| 20260505223025 | 67 | 116 | 0.0 | 1.0 | 0.00 | 0.47 | 0.08 | 71 | 1014.9 |
| 20260505221528 | 68 | 116 | 0.0 | 2.0 | 0.00 | 0.48 | 0.08 | 69 | 1015.0 |
| 20260505220043 | 68 | 81 | 0.0 | 0.0 | 0.00 | 0.49 | 0.08 | 69 | 1015.1 |
| 20260505214531 | 67 | 81 | 0.0 | 0.0 | 0.00 | 0.49 | 0.08 | 72 | 1015.1 |
| 20260505213029 | 66 | 81 | 0.0 | 0.0 | 0.00 | 0.49 | 0.08 | 74 | 1015.3 |
| 20260505211537 | 65 | 155 | 0.0 | 0.0 | 0.00 | 0.49 | 0.08 | 74 | 1015.5 |
| 20260505210028 | 64 | 155 | 0.0 | 2.0 | 0.00 | 0.49 | 0.08 | 75 | 1015.7 |
| 20260505204528 | 64 | 154 | 0.0 | 2.0 | 0.00 | 0.49 | 0.08 | 74 | 1015.7 |
| 20260505203010 | 65 | 60 | 0.0 | 0.0 | 0.00 | 0.49 | 0.08 | 73 | 1015.7 |
| 20260505201505 | 65 | 60 | 0.0 | 0.0 | 0.00 | 0.49 | 0.08 | 73 | 1015.8 |
| 20260505200008 | 65 | 60 | 0.0 | 0.0 | 0.00 | 0.49 | 0.08 | 72 | 1015.8 |
| 20260505194516 | 65 | 109 | 0.0 | 2.0 | 0.00 | 0.49 | 0.08 | 73 | 1015.7 |
| 20260505193009 | 65 | 107 | 0.0 | 2.0 | 0.00 | 0.49 | 0.08 | 73 | 1015.8 |
| 20260505191510 | 64 | 91 | 0.0 | 2.0 | 0.00 | 0.49 | 0.08 | 75 | 1015.9 |
| 20260505190011 | 64 | 37 | 0.0 | 3.0 | 0.00 | 0.49 | 0.08 | 72 | 1015.8 |
| 20260505184510 | 64 | 155 | 0.0 | 2.0 | 0.00 | 0.49 | 0.08 | 76 | 1015.9 |
| 20260505183016 | 63 | 155 | 0.0 | 2.0 | 0.00 | 0.49 | 0.08 | 78 | 1015.8 |
| 20260505181514 | 62 | 155 | 0.0 | 0.0 | 0.00 | 0.49 | 0.08 | 76 | 1015.8 |
| 20260505180011 | 61 | 155 | 0.0 | 2.0 | 0.00 | 0.49 | 0.08 | 78 | 1015.7 |
| 20260505174513 | 61 | 155 | 0.0 | 0.0 | 0.00 | 0.49 | 0.08 | 79 | 1015.6 |
| 20260505173012 | 60 | 155 | 0.0 | 0.0 | 0.00 | 0.49 | 0.08 | 83 | 1015.5 |
| 20260505171514 | 59 | 155 | 0.0 | 0.0 | 0.00 | 0.49 | 0.08 | 84 | 1015.5 |
| 20260505170011 | 58 | 155 | 0.0 | 0.0 | 0.00 | 0.49 | 0.08 | 87 | 1015.6 |
| 20260505164515 | 57 | 155 | 0.0 | 0.0 | 0.00 | 0.49 | 0.08 | 87 | 1015.6 |
| 20260505163009 | 57 | 155 | 0.0 | 0.0 | 0.00 | 0.49 | 0.08 | 87 | 1015.5 |
| 20260505161506 | 56 | 155 | 0.0 | 0.0 | 0.00 | 0.49 | 0.08 | 91 | 1015.4 |
| 20260505153012 | 54 | 155 | 0.0 | 0.0 | 0.00 | 0.49 | 0.08 | 96 | 1015.2 |
| 20260505151511 | 54 | 155 | 0.0 | 0.0 | 0.00 | 0.49 | 0.08 | 96 | 1015.1 |
| 20260505124533 | 52 | 155 | 0.0 | 0.0 | 0.00 | 0.49 | 0.08 | 96 | 1014.2 |